Cloud_Cover
100 100 100 100 100 100 100 100 100 100 100 100 100 100 94 85 80 6 5 5 5 11 34 36 27 41 5 2 4 9 7 5 5 29 100 100 100 100 98 99 23 96 5 95
100 100 100 100 100 100 100 100 100 100 100 100 100 100 100 40 32 5 5 17 5 40 35 6 5 58 5 5 5 5 74 48 22 43 100 100 95 89 100 91 67 100 100 72
100 100 100 100 100 100 100 100 100 100 100 100 100 100 100 100 100 100 100 87 11 36 38 82 90 61 85 76 50 29 95 58 52 71 100 100 100 100 100 100 98 100 69 59
100 100 100 100 100 100 100 100 100 100 100 100 100 94 76 100 97 100 100 93 92 99 86 100 100 100 100 92 78 73 100 60 58 87 100 100 100 96 74 100 100 87 72 50
100 100 100 100 100 100 100 100 100 100 100 100 100 100 100 92 99 100 100 100 100 100 100 98 100 100 100 100 100 100 100 100 100 100 100 100 99 100 100 100 100 100 100 91
100 100 100 100 100 100 100 100 100 100 100 100 100 100 100 76 100 100 100 100 100 100 100 100 100 100 100 100 100 100 100 100 100 100 100 100 100 100 100 100 100 98 99 100
100 100 100 100 100 100 100 100 100 100 100 100 100 100 100 100 100 100 100 100 100 100 100 100 100 100 100 100 100 100 100 100 100 100 100 100 100 100 100 100 100 100 100 100
100 100 100 100 100 100 100 100 100 100 100 100 100 100 100 100 100 100 100 100 100 100 100 100 100 100 100 100 100 100 100 100 100 100 100 100 100 100 100 100 100 100 100 100
100 100 100 100 100 100 100 100 100 100 100 100 100 100 100 100 100 100 100 100 100 100 100 100 100 100 100 100 100 100 100 100 100 100 100 100 100 100 100 100 100 100 100 100
100 100 100 100 100 100 100 100 100 100 93 100 100 100 100 100 100 100 100 100 100 100 100 100 100 100 100 100 100 100 100 100 100 100 100 100 100 100 100 100 100 100 100 100
99 97 100 100 100 100 100 100 100 97 100 100 100 100 100 100 100 100 100 100 100 100 100 100 100 100 100 100 100 100 100 100 100 100 100 100 100 100 100 100 95 100 100 100
85 100 100 100 100 100 100 100 100 100 100 100 100 100 100 100 100 100 100 100 100 100 100 100 100 100 100 100 100 100 100 100 100 100 100 100 100 100 100 100 100 100 100 100
99 100 88 100 100 100 100 100 100 100 100 100 100 100 100 100 100 100 100 100 100 100 100 100 100 100 100 100 100 100 100 100 100 100 100 100 100 100 100 100 100 100 100 100
81 74 48 100 100 100 100 100 100 100 100 100 100 100 100 93 100 100 100 100 100 100 100 100 100 100 100 100 100 100 100 100 100 100 100 100 100 100 100 100 100 100 100 100
100 100 55 14 15 92 100 100 100 100 100 100 100 100 100 100 100 100 100 100 100 100 100 100 100 100 100 100 100 100 100 100 100 100 100 100 100 100 100 100 100 100 100 100
98 93 96 100 12 45 50 20 90 100 100 100 100 100 100 100 100 100 100 100 100 100 100 100 100 100 100 100 100 100 100 100 100 100 100 100 100 100 100 100 100 100 100 100
100 98 100 59 59 23 13 8 35 100 52 100 100 100 100 100 100 100 100 100 100 100 100 100 100 100 100 100 100 100 100 100 100 100 100 100 100 100 100 100 100 100 100 100
100 100 100 70 77 80 0 1 29 5 0 1 98 100 100 100 100 100 84 100 100 100 100 100 100 100 100 100 100 100 100 100 100 100 100 100 100 100 100 100 100 100 100 100
47 98 74 88 93 4 1 0 4 28 3 0 2 46 100 100 100 100 100 100 100 100 100 100 100 100 100 100 100 100 100 100 100 100 100 100 100 100 100 100 100 100 100 100
100 100 94 100 67 5 46 68 11 5 2 1 0 5 5 5 5 57 23 14 78 100 98 100 95 100 100 86 86 10 12 34 96 98 100 100 100 97 4 5 0 0 0 5
100 100 100 83 81 10 0 0 1 3 4 4 4 4 4 43 36 16 93 100 98 92 100 98 100 100 98 32 5 5 4 1 0 3 0 2 5 5 2 3 8 3 1 1
39 71 82 81 99 72 0 0 0 1 0 0 0 0 0 0 0 3 5 5 37 61 99 100 95 87 91 87 8 4 2 2 1 3 4 5 5 4 2 5 5 5 5 3
53 65 32 9 5 0 1 0 0 0 0 0 0 4 5 2 0 5 5 5 49 50 25 7 42 32 17 3 0 0 0 0 4 5 5 5 5 5 5 5 5 5 4 4
4 9 69 5 3 2 5 6 5 5 0 0 0 0 2 5 1 4 5 4 5 5 5 5 3 0 0 5 4 4 4 5 5 5 5 5 5 5 5 4 0 5 5 5
2 0 2 0 0 0 0 4 4 1 0 5 5 5 4 0 1 3 5 5 5 5 2 0 0 0 1 5 5 5 5 5 5 5 5 5 5 5 5 0 1 0 5 5
0 1 2 0 0 0 0 0 0 0 0 1 2 1 1 0 4 5 5 2 0 0 0 0 0 1 5 5 5 5 5 5 5 5 5 5 5 1 0 0 0 0 0 2